30 Jun
2021
30 Jun
'21
11:45 a.m.
MIR-SAT1 (Mauritian Infra-Red Satellite 1) was launched from the Japanese ISS Kibo module at 10:55 UTC on 6-22-2021.
MIR-SAT1 has been identified as NORAD Cat ID 48868 as per Pierros Papadeas,SV1QVE and Nico Janssen, PA0DLO.
The current TLE for MIR-SAT1 per Space-Track are as follows:
MIR-SAT1 1 48868U 98067SP 21179.69602259 .00013025 00000-0 23878-3 0 9995 2 48868 51.6439 285.7711 0003006 182.6608 177.4342 15.49640979 1031